Regional Weather Roundup
Issued by NWS

Home | Current Version | Previous Version | Graphics & Text | Print | Product List | Glossary On
Versions: 1 2 3 4 5 6 7 8 9 10 11 12 13 14 15 16 17 18 19 20 21 22 23 24 25 26 27 28 29 30 31 32 33 34 35 36 37 38 39 40 41 42 43 44 45 46 47 48 49 50
000
ASUS43 KLOT 290406
RWRIL

ILLINOIS REGIONAL WEATHER ROUNDUP
NATIONAL WEATHER SERVICE CHICAGO/ROMEOVILLE IL
1100 PM CDT MON JUL 28 2014

NOTE: "FAIR" INDICATES FEW OR NO CLOUDS BELOW 12,000 FEET WITH NO
SIGNIFICANT WEATHER AND/OR OBSTRUCTIONS TO VISIBILITY.

* THESE STATIONS ARE NOT UNDER NWS QUALITY CONTROL. THEY ALSO MAY NOT
  REPORT WEATHER SUCH AS PRECIPITATION OR FOG.

ILZ001-002-007-009-015-016-024-290500-
NORTHWEST ILLINOIS

CITY           SKY/WX    TMP DP  RH WIND       PRES   REMARKS
MOLINE         CLEAR     57  53  86 CALM      30.11F
STERLING*      CLEAR     59  52  77 NW7       30.11S
SAVANNA*       CLEAR     60  55  85 CALM      30.10F
$$

ILZ003-004-008-010-011-017-018-290500-
NORTH CENTRAL ILLINOIS

CITY           SKY/WX    TMP DP  RH WIND       PRES   REMARKS
ROCKFORD       PTCLDY    61  53  75 W7        30.10F
FREEPORT*      CLEAR     56  52  84 W5        30.11F
ROCHELLE*      CLEAR     58  53  81 W6        30.09F
DE KALB*       CLEAR     60  52  76 W7        30.08F
PERU*          CLEAR     60  54  82 NW7       30.10S
$$

ILZ005-006-012>014-019>023-290500-
NORTHEAST ILLINOIS

CITY           SKY/WX    TMP DP  RH WIND       PRES   REMARKS
CHICAGO-OHARE  CLOUDY    62  49  62 CALM      30.05F
CHICAGO-MIDWAY CLOUDY    65  50  58 S6        30.06F
AURORA         CLEAR     56  52  86 W3        30.08F
LANSING*       CLOUDY    60  53  79 SW3       30.07F
JOLIET*        MOCLDY    64  52  65 W3        30.08F
WAUKEGAN       CLOUDY    59  51  75 E5        30.05F
DUPAGE AIRPORT PTCLDY    61  52  72 W6        30.06F
KANKAKEE*      CLEAR     54  52  93 CALM      30.09S
WHEELING       CLOUDY    62  51  67 CALM      30.07F
MORRIS*        CLEAR     58  54  86 W3        30.07F
ROMEOVILLE*    CLOUDY    61  52  72 CALM      30.07F
NORTHERLY ISL    N/A     62  51  67 SE3         N/A
$$

LMZ740>746-290500-
SOUTHERN LAKE MICHIGAN

STATION/POSITION SKY/WX   TEMP    WIND        PRES    VSBY  WAVE
                          AIR SEA DIR/SP/G                  HT/PER
                          (F)     (DEG/KT/KT) (MB)    (MI)  (FT/S)
SOUTHERN BUOY              59 60  240/  2/  2 1017.8F         2/ 7
WAUKEGAN HARBOR            61     210/  5/  7   N/A
HARRISON CRIB              62     180/  6/  7   N/A
BURNHAM HARBOR             62     160/  4/  4   N/A
CALUMET HARBOR             63     150/  1/  2 1016.8F
MICHIGAN CITY              64     340/  8/ 10   N/A
MICHIGAN CITY 6N           65 67  350/  6/ 10   N/A           4/ 7
ST. JOSEPH                 62 66  350/  4/  8   N/A           4/ 6
$$

ILZ025>027-034>036-040-047-049-050-058-095>099-290500-
WEST-CENTRAL ILLINOIS

CITY           SKY/WX    TMP DP  RH WIND       PRES   REMARKS
QUINCY         PTCLDY    61  57  87 CALM      30.14F
GALESBURG*     CLEAR     55  53  94 CALM      30.12F
MACOMB*        CLEAR     55  54  97 CALM      30.15S
JACKSONVILLE*  CLEAR     57  55  92 W3        30.14S
PITTSFIELD*    CLEAR     59  55  87 CALM      30.15F
$$

ILZ028>032-037-038-041>044-048-051>054-059>061-290500-
CENTRAL ILLINOIS

CITY           SKY/WX    TMP DP  RH WIND       PRES   REMARKS
PONTIAC        CLEAR     57  55  94 CALM      30.09F
DECATUR        CLEAR     59  52  77 N7        30.10F
PEORIA         CLEAR     61  54  77 CALM      30.11F
LACON*         CLEAR     56  53  89 CALM      30.09F
LINCOLN*       CLEAR     61  54  77 CALM      30.09S
SPRINGFIELD    CLEAR     58  55  90 NW3       30.13R
TAYLORVILLE    CLEAR     55  54  94 CALM      30.11S
$$

ILZ033-039-045-046-055>057-062-063-290500-
EAST-CENTRAL ILLINOIS

CITY           SKY/WX    TMP DP  RH WIND       PRES   REMARKS
CHAMPAIGN      CLEAR     56  52  86 NW5       30.09F
DANVILLE*      CLEAR     53  50  90 N5        30.06S
RANTOUL*       CLEAR     60  52  76 NW7       30.10S
MATTOON          N/A     56  50  80 CALM      30.09S
PARIS*         CLEAR     53  51  95 CALM      30.09S
$$

ILZ079-100>102-290500-
SOUTHWEST ILLINOIS

CITY           SKY/WX    TMP DP  RH WIND       PRES   REMARKS
ALTON          CLEAR     59  57  92 CALM      30.12S
BELLEVILLE     CLEAR     61  55  80 NW2       30.11S
CAHOKIA*       CLEAR     62  55  77 N5        30.12S
SPARTA*        CLEAR     63  54  72 CALM      30.12S
$$

ILZ064>066-069>071-074>076-080>082-084>086-088>090-092>094-290500-
SOUTH-CENTRAL ILLINOIS

CITY           SKY/WX    TMP DP  RH WIND       PRES   REMARKS
CARBONDALE     CLEAR     64  55  72 CALM      30.10R
CAIRO*         CLEAR     68  59  73 N5        30.09S
EFFINGHAM*     CLEAR     56  50  78 CALM      30.11R
MARION         CLEAR     64  55  72 N5        30.10S
MT. VERNON     CLEAR     57  52  82 CALM      30.11S
CENTRALIA*     CLEAR     56  52  85 CALM      30.10S
SALEM*         CLEAR    N/A N/A N/A N3        30.11S
METROPOLIS*    CLEAR     66  54  65 CALM      30.08S
$$

ILZ067-068-072-073-078-083-087-091-290500-
SOUTHEAST ILLINOIS

CITY           SKY/WX    TMP DP  RH WIND       PRES   REMARKS
LAWRENCEVILLE  CLEAR     59  51  75 N5        30.09S
FLORA*         CLEAR     60  53  76 N3        30.11R
FAIRFIELD*     CLEAR     61  57  88 CALM      30.10R
HARRISBURG*    CLEAR     64  55  73 N3        30.10S
ROBINSON*      CLEAR     56  53  88 CALM      30.09F
CARMI*         CLEAR     63  57  82 N6        30.09R
$$

ABBREVIATIONS USED IN REMARKS
   TC - TEMPERATURE IN CELSIUS
  WCI - WIND CHILL INDEX
   HX - HEAT INDEX
  VSB - VISIBILITY
$$



USA.gov is the U.S. government's official web portal to all federal, state and local government web resources and services.